Location: Chiroubles
(46.1812°N, 4.6660°E)
Time: 11:22:07
(UTC+00:00)

SR - Pass Details

Date: 02 December 2020
Orbit: 575 x 880 km, 66.7° (Epoch: 20 January)

Event Time Altitude Azimuth Distance (km) Brightness Sun altitude
Rises 18:45:59 0° 254° (WSW) 2,847 ? -28.5°
Reaches altitude 10° 18:48:37 10° 271° (W) 1,985 ? -29.0°
Maximum altitude 18:52:04 21° 321° (NW) 1,433 ? -29.6°
Enters shadow 18:52:48 21° 335° (NNW) 1,475 ? -29.7°
